Regional Weather Roundup
Issued by NWS Northern Indiana

Home | Current Version | Previous Version | Graphics & Text | Print | Product List | Glossary On
Versions: 1 2 3 4 5 6 7 8 9 10 11 12 13 14 15 16 17 18 19 20 21 22 23 24 25 26 27 28 29 30 31 32 33 34 35 36 37 38 39 40 41 42 43 44 45 46 47 48 49 50
000
ASUS43 KIWX 252010
RWRIWX

KIWX WEATHER ROUNDUP
NATIONAL WEATHER SERVICE NORTHERN INDIANA
400 PM EDT WED APR 25 2018

NOTE: "FAIR" INDICATES FEW OR NO CLOUDS BELOW 12,000 FEET WITH NO
SIGNIFICANT WEATHER AND/OR OBSTRUCTIONS TO VISIBILITY.

* THESE STATIONS ARE NOT UNDER NWS QUALITY CONTROL. THEY ALSO MAY NOT
  REPORT WEATHER SUCH AS PRECIPITATION OR FOG.

INZ001>027-252100-
NORTHERN INDIANA

CITY           SKY/WX    TMP DP  RH WIND       PRES   REMARKS
GARY*          MOSUNNY   46  34  61 N12G23    30.10F
VALPARAISO     FAIR      52  32  46 N15G24    30.05F
MICHIGAN CITY* FAIR      45  34  65 N16       30.07F
LAPORTE*       FAIR      49  33  54 N22       30.05F
KNOX*          FAIR      54  32  43 NW18G26   30.04F
SOUTH BEND     FAIR      51  31  46 NW18G24   30.05S
ELKHART*       FAIR      55  32  41 W17G23    30.01S
GOSHEN         FAIR      57  36  45 NW18G26   29.99R
MONTICELLO*    FAIR      58  30  34 N21G26    30.01S
LOGANSPORT*    FAIR      59  32  36 NW17G26   30.01R
ROCHESTER*     FAIR      59  32  36 NW14G21   30.01S
WARSAW*        FAIR      59  32  36 NW18      29.99S
AUBURN*        FAIR      63  34  34 W10G21    29.95S
FORT WAYNE     FAIR      65  38  36 W13       29.95F
HUNTINGTON*    FAIR      63  33  33 N10G16    29.95F
PERU/GRISSOM   FAIR      62  35  37 NW16G23   29.97R
MARION*        FAIR      63  37  38 NW17G23   29.96F

$$
INZ028>050-252100-
CENTRAL INDIANA

CITY           SKY/WX    TMP DP  RH WIND       PRES   REMARKS
LAFAYETTE      FAIR      61  38  42 N15       30.00S
KOKOMO*        FAIR      63  38  39 NW20      29.98F
MUNCIE*        FAIR      64  42  44 NW14      29.94F
INDIANAPOLIS   PTSUNNY   64  47  53 N12       29.97F

$$
MIZ043>046-050>051-056>058-064>065-071>073-077>080-252100-
SOUTHWEST LOWER MICHIGAN

CITY           SKY/WX    TMP DP  RH WIND       PRES   REMARKS
BATTLE CREEK   FAIR      60  32  34 W15       29.95F
BENTON HARBOR  FAIR      44  34  67 NW13G22   30.07R
COLDWATER*     FAIR      62  32  33 N14G22    29.94F
HILLSDALE*     FAIR      59  34  38 NW15      29.92F
HOLLAND        FAIR      49  36  61 NW15G23   30.03S
GRAND RAPIDS   FAIR      60  33  36 NW9G16    29.96F
KALAMAZOO      FAIR      61  33  35 NW17      29.97F
STURGIS*       FAIR      62  38  40 NW14G20   29.95S
THREE RIVERS*  FAIR      60  34  38 NW15      29.97S

$$
OHZ001>008-015>018-024>025-252100-
NORTHWEST OHIO

CITY           SKY/WX    TMP DP  RH WIND       PRES   REMARKS
WAUSEON*       PTSUNNY   64  37  36 NW14G21   29.92S
DEFIANCE       FAIR      64  38  38 NW14G23   29.92F
FINDLAY        PTSUNNY   64  46  52 NW10      29.91F
TOLEDO EXPRESS FAIR      63  40  42 NW15G23   29.91F
TOLEDO METCALF PTSUNNY   64  40  41 NW10G20   29.92S
LIMA           FAIR      59  49  69 NW8       29.93F

$$
AND FOR LAKE MICHIGAN COASTAL AND OPEN LAKE BUOY OBSERVATIONS

STATION/POSITION TEMP    WIND        PRES    VSBY  WAVE
                 AIR SEA DIR/SP/G                  HT/PER
                 (F)     (DEG/KT/KT) (MB)    (MI)  (FT/S)
CALUMET HARBOR    41      20/ 11/ 15 1018.3F
MICHIGAN CITY     40     340/ 17/ 18   N/A
BURNS HARBOR      39      10/ 13/ 17 1019.3F
SAINT JOSEPH      41     340/ 15/ 18 1019.3
4 MI NW BRIDGMAN  39 42  360/ 16/ 19 1019.2          5/ 6

$$
&&




USA.gov is the U.S. government's official web portal to all federal, state and local government web resources and services.